Regional Weather Roundup
Issued by NWS

Home | Current Version | Previous Version | Graphics & Text | Print | Product List | Glossary On
Versions: 1 2 3 4 5 6 7 8 9 10 11 12 13 14 15 16 17 18 19 20 21 22 23 24 25 26 27 28 29 30 31 32 33 34 35 36 37 38 39 40 41 42 43 44 45 46 47 48 49 50
000
ASUS45 KTFX 251804
RWRMT
MONTANA HOURLY WEATHER ROUNDUP
NATIONAL WEATHER SERVICE GREAT FALLS MT
1204 PM MDT FRI JUL 25 2014

NOTE: "FAIR" INDICATES FEW OR NO CLOUDS BELOW 12000 FEET WITH NO
SIGNIFICANT WEATHER AND/OR OBSTRUCTIONS TO VISIBILITY.

* THESE STATIONS ARE NOT UNDER NWS QUALITY CONTROL. THEY DO NOT
   REPORT WEATHER SUCH AS PRECIPITATION OR FOG.

MTZ001>007-043-251900-
WEST OF THE DIVIDE
CITY           SKY/WX    TMP DP  RH WIND       PRES   REMARKS
KALISPELL      CLOUDY    66  41  40 SW13G21   30.01F
MISSOULA       SUNNY     70  39  32 NW9       30.09F
BUTTE          SUNNY     64  32  30 NW7       30.11F
MULLAN PASS    CLOUDY    50  41  71 VRB5      30.17S
* ESSEX        N/A       60  40  48 NE6        N/A
* LINCOLN      N/A       62  40  45 SW9G21     N/A
* LOOKOUT PASS N/A       56  42  60 SE7G14     N/A
* POLSON       N/A       69  46  44 SW4G9      N/A
* RONAN APT    SUNNY     64  45  50 S9         N/A
* SEELEY LAKE  N/A       62  38  41 W9G23      N/A
* THOMP F APT  SUNNY     64  24  22 SE6G14     N/A
$$

MTZ008-052>055-251900-
SOUTHWEST MONTANA
CITY           SKY/WX    TMP DP  RH WIND       PRES   REMARKS
BOZEMAN        SUNNY     70  39  32 VRB5      30.05F
DILLON         SUNNY     70  34  27 VRB3      30.09F
W YELLOWSTONE  SUNNY     64  25  23 S15       30.18S
* THREE FORKS  SUNNY     72  43  35 W5         N/A
* BOULDER HILL N/A       63  31  30 S8G19      N/A
* MONIDA PASS  N/A       64  24  22 E11G17     N/A
* RAYNOLDS PAS N/A       61  40  46 SE19G24    N/A
* WHITEHALL    N/A       74  40  29 SW12G18    N/A
* WISE RIVER   N/A       64  28  26 NW15G22    N/A
$$

MTZ009>010-012-014-046-048-049-054-251900-
EAST SLOPES AND CENTRAL MONTANA
CITY           SKY/WX    TMP DP  RH WIND       PRES   REMARKS
CUT BANK       SUNNY    N/A N/A N/A N/A       29.89R
GREAT FALLS    SUNNY     72  34  25 SW18G29   29.91F
HELENA         SUNNY     72  34  25 W22G32    30.02F
MALMSTROM AFB  SUNNY     70  34  27 SW29G35   29.94S
* CONRAD       SUNNY     70  43  38 SW16G23    N/A
* DEARBORN     N/A       69  33  26 S22G32     N/A
* EAST GLACIER N/A       59  37  44 W28G37     N/A
* MONARCH      N/A       63  29  28 SW18G30    N/A
* SAINT MARY   N/A       58  39  49 S13G30     N/A
* SWEET GRASS  N/A       68  35  30 NW26G35    N/A
$$

MTZ011-013-016-021-035-040-045-047-050-051-251900-
NORTH CENTRAL MONTANA
CITY           SKY/WX    TMP DP  RH WIND       PRES   REMARKS
HAVRE          SUNNY     75  37  25 W26G37    29.80F
LEWISTOWN      SUNNY     75  27  17 W26G31    29.93F
* CHESTER      N/A       68  34  28 W20G38     N/A
* DENTON       N/A       74  35  24 SW19G30    N/A
* GEYSER       N/A       72  33  24 W20G34     N/A
* JUDITH GAP   N/A       69  37  31 SW16G27    N/A
* LOMA         N/A       73  33  23 SW22G31    N/A
$$

MTZ017>020-022>027-061-062-251900-
NORTHEAST MONTANA
CITY           SKY/WX    TMP DP  RH WIND       PRES   REMARKS
GLASGOW        SUNNY     79  36  21 W22G31    29.80F
GLENDIVE       SUNNY     79  45  30 SW16G23   29.88F
JORDAN         SUNNY     79  32  18 W17G25    29.85F
SIDNEY         SUNNY     79  39  24 SW17G24   29.85F
WOLF POINT     SUNNY     79  37  22 W21G26    29.81F
* BEAVER HILL  N/A       75  41  30 S10G17     N/A
* CIRCLE       N/A       76  42  30 SW17       N/A
* LINDSAY DVD  N/A       75  42  31 SW14G20    N/A
* NAVAJO       N/A       71  45  39 W23G32     N/A
$$

MTZ028>042-056>058-251900-
SOUTHCENTRAL AND SOUTHEAST MONTANA
CITY           SKY/WX    TMP DP  RH WIND       PRES   REMARKS
BAKER          SUNNY     79  39  24 W13G20    29.93F
BILLINGS       SUNNY     79  37  22 VRB7      29.95F
LIVINGSTON     SUNNY     77  32  19 W22       30.00F
MILES CITY     SUNNY     81  39  22 W10G22    29.88F
* LAUREL APT   SUNNY     77  37  24 N/A        N/A
* ROUNDUP APT  SUNNY     75  34  22 SW18G29    N/A
* ALZADA       N/A       76  38  25 SE4        N/A
* HYSHAM       N/A       79  40  25 SW4G12     N/A
* LAME DEER    N/A       75  44  33 SE9G14     N/A
* REED POINT   N/A       76  39  26 W10        N/A
* ROSCOE HILL  N/A       72  34  25 NE2G12     N/A
$$

REGIONAL REPORTS...DAKOTAS
CITY           SKY/WX    TMP DP  RH WIND       PRES   REMARKS
WILLISTON      SUNNY     77  41  28 W16G28    29.83F
DICKINSON      SUNNY     73  45  37 SW9       29.89F
CROSBY         SUNNY     70  50  49 W16G22    29.81F
TIOGA          SUNNY     72  48  43 W17G22    29.87F
WATFORD CITY   SUNNY     73  45  37 W15       29.84F
BISMARCK       SUNNY     81  48  32 NW12      29.86F
GRAND FORKS    PTSUNNY   77  66  69 S6        29.74S
FARGO          CLOUDY    75  66  74 N6        29.76F
BUFFALO SD     SUNNY     75  41  30 W6        29.89F
RAPID CITY     SUNNY     75  43  32 VRB6      29.98F
$$

REGIONAL REPORTS...WYOMING/IDAHO/WASHINGTON
CITY           SKY/WX    TMP DP  RH WIND       PRES   REMARKS
GILLETTE       SUNNY     81  43  26 SE12      29.98F
SHERIDAN       SUNNY     79  52  39 E7        29.95F
YELLOWSTONE LA SUNNY     64  19  18 VRB5      30.25S
SALMON         SUNNY     68  37  32 W3        30.07F
MULLAN PASS    CLOUDY    50  41  71 VRB5      30.17S
SAND POINT     PTSUNNY   64  46  52 SW10      30.09S
SPOKANE        SUNNY     64  43  47 SW12G17   30.11S
$$

REGIONAL REPORTS...ALBERTA
CITY           SKY/WX    TMP DP  RH WIND       PRES   REMARKS
EDMONTON       RAIN      55  54  96 NW30G45   29.59R VSB 1

$$




USA.gov is the U.S. government's official web portal to all federal, state and local government web resources and services.